EW9154 Weather Reports


time (UTC)temp
C
wind
direction
speed
KPH
gust
KPH
rain 1hr
cm
rain 24hr
cm
rain mn
cm
humidity
%
barometer
mb
20260505070308 5 246 0.0 0.0 0.00 0.00 0.00 62 1020.4
20260505070246 5 246 0.0 0.0 0.00 0.00 0.00 62 1020.5
20260505065219 5 246 0.0 0.0 0.00 0.00 0.00 62 1020.5
20260505064714 5 246 0.0 0.0 0.00 0.00 0.00 62 1020.5
20260505064212 5 246 0.0 0.0 0.00 0.00 0.00 61 1020.5
20260505063656 5 246 0.0 0.0 0.00 0.00 0.00 61 1020.4
20260505063157 5 246 0.0 0.0 0.00 0.00 0.00 61 1020.3
20260505062633 5 246 0.0 0.0 0.00 0.00 0.00 60 1020.4
20260505062107 5 246 0.0 0.0 0.00 0.00 0.00 60 1020.4
20260505061810 5 246 0.0 0.0 0.00 0.00 0.00 60 1020.4
20260505061039 5 216 0.0 0.0 0.00 0.00 0.00 59 1020.4
20260505060531 5 216 0.0 0.0 0.00 0.00 0.00 59 1020.5
20260505060034 5 215 0.0 0.0 0.00 0.00 0.00 59 1020.5
20260505055507 5 216 0.0 0.0 0.00 0.00 0.00 59 1020.5
20260505054939 5 216 0.0 0.0 0.00 0.00 0.00 58 1020.3
20260505054437 6 215 0.0 0.0 0.00 0.00 0.00 58 1020.3
20260505053910 6 216 0.0 0.0 0.00 0.00 0.00 58 1020.3
20260505053406 6 216 0.0 0.0 0.00 0.00 0.00 58 1020.4
20260505052847 6 216 0.0 0.0 0.00 0.00 0.00 58 1020.3
20260505052346 6 186 0.0 0.0 0.00 0.00 0.00 58 1020.2
20260505051818 6 261 0.0 0.0 0.00 0.00 0.00 58 1020.2
20260505051549 6 261 0.0 0.0 0.00 0.00 0.00 57 1020.1
20260505050750 6 261 0.0 0.0 0.00 0.00 0.00 57 1020.1
20260505050237 6 261 0.0 0.0 0.00 0.00 0.00 57 1020.1
20260505041612 6 221 0.0 0.0 0.00 0.00 0.00 53 1019.8
20260505041341 6 272 0.0 0.0 0.00 0.00 0.00 53 1020.0
20260505040547 6 272 0.0 0.0 0.00 0.00 0.00 53 1020.0
20260505040040 6 272 0.0 0.0 0.00 0.00 0.00 53 1020.0
20260505035538 6 267 0.0 0.0 0.00 0.00 0.00 52 1020.0
20260505035002 7 267 0.0 0.0 0.00 0.00 0.00 52 1019.8
20260505034728 7 266 0.0 0.0 0.00 0.00 0.00 52 1019.8
20260505033955 7 267 0.0 0.0 0.00 0.00 0.00 52 1019.7
20260505033430 7 267 0.0 0.0 0.00 0.00 0.00 51 1019.7
20260505032906 7 267 0.0 0.0 0.00 0.00 0.00 51 1019.8
20260505032353 7 252 0.0 0.0 0.00 0.00 0.00 50 1019.8
20260505031828 7 252 0.0 0.0 0.00 0.00 0.00 50 1019.7
20260505031259 7 252 0.0 0.0 0.00 0.00 0.00 49 1019.8
20260505030758 7 258 0.0 0.0 0.00 0.00 0.00 49 1019.8
20260505030246 7 259 0.0 0.0 0.00 0.00 0.00 49 1019.8
20260505025720 7 258 0.0 0.0 0.00 0.00 0.00 49 1019.7
20260505025451 7 247 0.0 0.0 0.00 0.00 0.00 48 1019.7
20260505024651 7 246 0.0 0.0 0.00 0.00 0.00 48 1019.6
20260505024149 7 246 0.0 0.0 0.00 0.00 0.00 48 1019.6
20260505023645 7 246 0.0 0.0 0.00 0.00 0.00 48 1019.6
20260505023144 8 246 0.0 0.0 0.00 0.00 0.00 47 1019.5
20260505022858 8 246 0.0 0.0 0.00 0.00 0.00 46 1019.4
20260505022130 8 243 0.0 0.0 0.00 0.00 0.00 46 1019.3
20260505021604 8 243 0.0 0.0 0.00 0.00 0.00 45 1019.3
20260505021036 8 243 0.0 0.0 0.00 0.00 0.00 45 1019.3
20260505020805 8 206 0.0 0.0 0.00 0.00 0.00 45 1019.2
20260505020018 8 246 0.0 0.0 0.00 0.00 0.00 44 1019.1
20260505015500 8 254 0.0 0.0 0.00 0.00 0.00 44 1019.1
20260505015005 8 254 0.0 0.0 0.00 0.00 0.00 44 1019.0
20260505014435 8 242 0.0 0.0 0.00 0.00 0.00 43 1019.0
20260505014203 8 236 0.0 1.6 0.00 0.00 0.00 43 1018.9
20260505013406 9 234 0.0 6.4 0.00 0.00 0.00 42 1019.0
20260505012840 9 239 0.0 6.4 0.00 0.00 0.00 42 1018.8
20260505012314 9 296 0.0 1.6 0.00 0.00 0.00 43 1018.7
20260505011808 9 121 0.0 4.8 0.00 0.00 0.00 44 1018.6
20260505011243 10 14 0.0 4.8 0.00 0.00 0.00 43 1018.5
20260505010742 10 319 0.0 6.4 0.00 0.00 0.00 43 1018.3
20260505010238 10 275 0.0 6.4 0.00 0.00 0.00 43 1018.3
20260505005734 10 236 0.0 6.4 0.00 0.00 0.00 43 1018.1
20260505005217 10 226 0.0 14.5 0.00 0.00 0.00 43 1018.0
20260505004717 10 302 0.0 14.5 0.00 0.00 0.00 42 1017.9
20260505004152 11 263 0.0 11.3 0.00 0.00 0.00 42 1017.9
20260505003628 11 305 0.0 11.3 0.00 0.00 0.00 41 1017.8
20260505003114 11 297 0.0 8.0 0.00 0.00 0.00 41 1017.7
20260505002618 11 282 0.0 8.0 0.00 0.00 0.00 41 1017.6
20260505002053 11 5 0.0 12.9 0.00 0.00 0.00 39 1017.4
20260505001541 11 200 0.0 1.6 0.00 0.00 0.00 39 1017.3
20260505001038 11 282 0.0 1.6 0.00 0.00 0.00 40 1017.3
20260505000536 11 279 0.0 1.6 0.00 0.00 0.00 39 1017.3
20260505000027 11 255 0.0 6.4 0.00 0.00 0.00 39 1017.2
20260504235756 11 256 0.0 17.7 0.00 0.00 0.00 39 1017.2
20260504235004 11 242 0.0 17.7 0.00 0.00 0.00 39 1017.2
20260504234508 12 237 0.0 11.3 0.00 0.00 0.00 40 1017.1
20260504234211 12 269 0.0 11.3 0.00 0.00 0.00 38 1017.0
20260504233437 12 271 0.0 20.9 0.00 0.00 0.00 38 1017.0
20260504232933 12 271 0.0 20.9 0.00 0.00 0.00 38 1017.0
20260504232430 12 258 0.0 19.3 0.00 0.00 0.00 38 1016.8
20260504231904 12 261 0.0 19.3 0.00 0.00 0.00 37 1016.8
20260504231353 13 304 0.0 4.8 0.00 0.00 0.00 38 1016.8
20260504231123 13 263 0.0 12.9 0.00 0.00 0.00 37 1016.8
20260504230347 13 333 0.0 12.9 0.00 0.00 0.00 37 1016.7
20260504225843 13 280 0.0 9.7 0.00 0.00 0.00 37 1016.6
20260504225340 13 284 0.0 4.8 0.00 0.00 0.00 36 1016.5
20260504224814 13 283 0.0 4.8 0.00 0.00 0.00 37 1016.4
20260504224300 14 302 0.0 4.8 0.00 0.00 0.00 36 1016.3
20260504224236 14 277 0.0 20.9 0.00 0.00 0.00 37 1016.3
20260504223437 14 249 1.6 20.9 0.00 0.00 0.00 35 1016.1
20260504222637 14 252 1.6 19.3 0.00 0.00 0.00 36 1016.0
20260504222134 15 268 1.6 19.3 0.00 0.00 0.00 36 1015.8
20260504222109 15 257 1.6 19.3 0.00 0.00 0.00 36 1015.8
20260504221038 15 296 1.6 19.3 0.00 0.00 0.00 34 1015.8
20260504220735 16 252 0.0 11.3 0.00 0.00 0.00 34 1015.7
20260504215955 16 319 0.0 14.5 0.00 0.00 0.00 35 1015.5
20260504215451 16 192 0.0 14.5 0.00 0.00 0.00 34 1015.5
20260504214950 16 252 0.0 11.3 0.00 0.00 0.00 36 1015.4
20260504214435 15 289 0.0 12.9 0.00 0.00 0.00 36 1015.3
20260504213938 15 288 0.0 12.9 0.00 0.00 0.00 35 1015.2
20260504213409 16 254 0.0 24.1 0.00 0.00 0.00 35 1015.0
20260504212906 16 303 0.0 24.1 0.00 0.00 0.00 35 1014.9
20260504212406 15 213 1.6 25.7 0.00 0.00 0.00 35 1014.9
20260504211905 16 269 1.6 25.7 0.00 0.00 0.00 34 1014.8
20260504211337 16 275 1.6 22.5 0.00 0.00 0.00 34 1014.9
20260504210830 16 284 0.0 22.5 0.00 0.00 0.00 33 1014.7
20260504210304 16 182 1.6 8.0 0.00 0.00 0.00 34 1014.8
20260504205757 16 292 1.6 17.7 0.00 0.00 0.00 33 1014.7
20260504205257 17 271 1.6 24.1 0.00 0.00 0.00 33 1014.7
20260504204754 17 254 1.6 24.1 0.00 0.00 0.00 32 1014.7
20260504204525 17 309 1.6 22.5 0.00 0.00 0.00 32 1014.7
20260504203752 17 225 1.6 20.9 0.00 0.00 0.00 33 1014.6
20260504203257 17 279 3.2 20.9 0.00 0.00 0.00 33 1014.5
20260504203001 17 256 3.2 22.5 0.00 0.00 0.00 34 1014.5
20260504202217 17 279 3.2 22.5 0.00 0.00 0.00 32 1014.4
20260504201918 18 244 1.6 20.9 0.00 0.00 0.00 33 1014.5
20260504201149 17 279 1.6 17.7 0.00 0.00 0.00 34 1014.4
20260504200638 17 287 1.6 19.3 0.00 0.00 0.00 33 1014.3
20260504200141 17 252 1.6 20.9 0.00 0.00 0.00 33 1014.3
20260504195627 17 250 1.6 20.9 0.00 0.00 0.00 32 1014.3
20260504195100 17 261 1.6 20.9 0.00 0.00 0.00 34 1014.3
20260504194604 17 234 3.2 20.9 0.00 0.00 0.00 35 1014.3
20260504194048 17 271 1.6 17.7 0.00 0.00 0.00 35 1014.3
20260504193545 17 259 1.6 22.5 0.00 0.00 0.00 34 1014.2
20260504193046 17 255 1.6 22.5 0.00 0.00 0.00 34 1014.0
20260504192759 17 309 1.6 9.7 0.00 0.00 0.00 35 1014.0
20260504192300 17 279 4.8 27.4 0.00 0.00 0.00 35 1013.9
20260504191530 17 242 4.8 27.4 0.00 0.00 0.00 33 1013.8
20260504191012 17 259 1.6 14.5 0.00 0.00 0.00 33 1013.8
20260504190743 17 107 1.6 19.3 0.00 0.00 0.00 34 1013.8
20260504190011 17 261 1.6 19.3 0.00 0.00 0.00 33 1013.8
20260504185511 18 288 0.0 11.3 0.00 0.00 0.00 33 1013.6
20260504185011 17 201 1.6 12.9 0.00 0.00 0.00 35 1013.6
20260504184515 17 218 3.2 16.1 0.00 0.00 0.00 35 1013.6
20260504183953 16 232 3.2 20.9 0.00 0.00 0.00 35 1013.6
20260504183444 16 262 1.6 20.9 0.00 0.00 0.00 33 1013.6
20260504183213 16 269 1.6 14.5 0.00 0.00 0.00 32 1013.5
20260504182440 17 257 1.6 16.1 0.00 0.00 0.00 32 1013.4
20260504181941 17 288 1.6 16.1 0.00 0.00 0.00 31 1013.4
20260504181438 18 263 1.6 11.3 0.00 0.00 0.00 30 1013.2
20260504180918 18 257 1.6 11.3 0.00 0.00 0.00 33 1013.1
20260504180419 18 257 1.6 12.9 0.00 0.00 0.00 32 1013.1
20260504175848 18 288 3.2 17.7 0.00 0.00 0.00 31 1013.0
20260504175348 18 240 1.6 17.7 0.00 0.00 0.00 32 1012.6
20260504174848 18 236 0.0 14.5 0.00 0.00 0.00 32 1012.8
20260504174348 18 327 1.6 12.9 0.00 0.00 0.00 32 1012.6
20260504173848 18 256 3.2 29.0 0.00 0.00 0.00 33 1012.6
20260504173320 18 232 1.6 29.0 0.00 0.00 0.00 33 1012.6
20260504172759 18 238 1.6 16.1 0.00 0.00 0.00 35 1012.5
20260504172235 18 300 0.0 16.1 0.00 0.00 0.00 36 1012.5
20260504171730 18 277 0.0 11.3 0.00 0.00 0.00 37 1012.5
20260504171230 18 284 0.0 11.3 0.00 0.00 0.00 37 1012.3
20260504170701 18 241 1.6 20.9 0.00 0.00 0.00 36 1012.4
20260504170137 18 16 1.6 20.9 0.00 0.00 0.00 35 1012.5
20260504160404 17 244 1.6 19.3 0.00 0.00 0.00 38 1012.3
20260504150617 16 221 0.0 12.9 0.00 0.00 0.00 41 1012.1
20260504150114 16 209 0.0 12.9 0.00 0.00 0.00 42 1012.0
20260504140921 15 284 1.6 16.1 0.00 0.00 0.00 41 1011.7
20260504140414 16 261 0.0 16.1 0.00 0.00 0.00 46 1011.6
20260504130749 15 263 1.6 14.5 0.00 0.00 0.00 50 1010.8
20260504130220 15 278 1.6 17.7 0.00 0.00 0.00 50 1010.8
20260504100518 13 227 4.8 24.1 0.00 0.00 0.00 45 1010.0
20260504081612 13 205 3.2 17.7 0.00 0.00 0.00 46 1011.7
20260504081113 13 201 1.6 17.7 0.00 0.00 0.00 46 1011.9
20260504080816 13 202 3.2 20.9 0.00 0.00 0.00 46 1012.1